Regional Weather Roundup
Issued by NWS

Home | Current Version | Previous Version | Graphics & Text | Print | Product List | Glossary On
Versions: 1 2 3 4 5 6 7 8 9 10 11 12 13 14 15 16 17 18 19 20 21 22 23 24 25 26 27 28 29 30 31 32 33 34 35 36 37 38 39 40 41 42 43 44 45 46 47 48
157
ASUS45 KCYS 072110
RWRWY

WYOMING REGIONAL WEATHER ROUNDUP
NATIONAL WEATHER SERVICE CHEYENNE WY
200 PM MST SUN FEB 07 2016

NOTE:  "FAIR" INDICATES FEW OR NO CLOUDS BELOW 12,000 FEET
WITH NO SIGNIFICANT WEATHER AND/OR OBSTRUCTIONS TO VISIBILITY.

WYZ001-072200-
YELLOWSTONE NATIONAL PARK

CITY           SKY/WX    TMP DP  RH WIND       PRES   REMARKS
LK YELLOWSTONE   N/A     31   8  38 VRB6      30.44S WCI  25
W YELLOWSTONE  NOT AVBL

$$
WYZ002>013-054>058-071-098>099-072200-
NORTHERN WYOMING

CITY           SKY/WX    TMP DP  RH WIND       PRES   REMARKS
JACKSON        SUNNY     36   9  32 W16       30.45S WCI  26
CODY           FAIR      37  16  41 NE13      30.37F WCI  29
GREYBULL       FAIR      40  10  29 N14G24    30.38F WCI  32
WORLAND        FAIR      36  13  38 CALM      30.40F
SHERIDAN       PTSUNNY   36   7  30 N17       30.36F WCI  25
BUFFALO        FAIR      31  13  47 N28G38    30.33S WCI  17
GILLETTE       FAIR      33  13  43 NW30G43   30.30F WCI  19
HULETT         CLOUDY    34  10  37 NW20G32   30.27S WCI  22
NEWCASTLE      FAIR      36   5  27 NW37G55   30.26F WCI  21

$$
WYZ014>020-022>026-101>103-072200-
CENTRAL WYOMING

CITY           SKY/WX    TMP DP  RH WIND       PRES   REMARKS
BIG PINEY      FAIR      37  18  46 N18       30.41F WCI  27
PINEDALE       FAIR      34  18  51 W24G30    30.39F WCI  21
DUBOIS         FAIR      36   9  32 NW22G35   30.34S WCI  24
LANDER         FAIR      32  16  51 E12       30.35F WCI  23
RIVERTON       FAIR      32  14  47 E6        30.37F WCI  26
CASPER         FAIR      30  16  56 NW8       30.35F WCI  22
DOUGLAS        CLOUDY    30  13  49 NW24G38     N/A  WCI  16

$$
WYZ021-027>030-104>119-072200-
SOUTHERN WYOMING

CITY           SKY/WX    TMP DP  RH WIND       PRES   REMARKS
EVANSTON       FAIR      32  20  61 SW15      30.51F WCI  22
KEMMERER       FAIR      32  23  69 W30       30.45  WCI  18
FORT BRIDGER   CLEAR     34  23  64 W18       30.52F WCI  23
ROCK SPRINGS   FAIR      33  21  61 W33G40    30.40F WCI  18
DIXON          FAIR      34  20  57 SW9       30.46F WCI  27
RAWLINS        FAIR      31  22  69 W23G30    30.35F WCI  18
SARATOGA       FAIR      30  23  74 W22G30    30.36F WCI  17
LARAMIE        FAIR      30  20  66 NW18G28   30.24F WCI  18
CHEYENNE       FAIR      30  17  58 N24G40    30.23F WCI  16
TORRINGTON     PTSUNNY   34  11  38 NW32G47   30.29F WCI  20
PINE BLUFFS    CLOUDY    30  19  64 N25G38    30.27F WCI  16

$$




USA.gov is the U.S. government's official web portal to all federal, state and local government web resources and services.